Regional Weather Roundup
Issued by NWS

Home | Current Version | Previous Version | Text Only | Print | Product List | Glossary On
Versions: 1 2 3 4 5 6 7 8 9 10 11 12 13 14 15 16 17 18 19 20 21 22 23 24 25 26 27 28 29 30 31 32 33 34 35 36 37 38 39 40 41 42 43 44 45 46 47 48 49 50
000
ASUS43 KDTX 011810
RWRMI
MICHIGAN HOURLY REGIONAL WEATHER ROUNDUP
NATIONAL WEATHER SERVICE DETROIT/PONTIAC MI
100 PM EST SUN MAR 01 2015

NOTE: "FAIR" INDICATES FEW OR NO CLOUDS BELOW 12,000 FEET WITH NO
SIGNIFICANT WEATHER AND/OR OBSTRUCTION TO VISIBILITY.

MIZ047>049-052>055-059>063-066>070-074>076-081>083-011900-
SOUTHEAST LOWER MICHIGAN

CITY           SKY/WX    TMP DP  RH WIND       PRES   REMARKS
ADRIAN         LGT SNOW  20  17  88 W3        30.32F VSB 3/4
6HR MIN TEMP:  15; 6HR MAX TEMP:  20; 6HR PCP: TRACE;

ALMA           PTSUNNY   22  16  79 S10       30.30F WCI  11
ANN ARBOR      LGT SNOW  21  16  81 W6        30.30F WCI  13
BAD AXE        PTSUNNY   21  13  71 W7        30.28F WCI  12
CARO           CLOUDY    24  13  65 W9        30.29F WCI  14
DETROIT CITY   CLOUDY    24  15  68 W3        30.30F
6HR MIN TEMP:  17; 6HR MAX TEMP:  24;

DETROIT        LGT SNOW  23  18  80 SW5       30.32F VSB 1   WCI  17
6HR MIN TEMP:  17; 6HR MAX TEMP:  23; 6HR PCP: TRACE;

FLINT          CLOUDY    23  12  62 W8        30.30F WCI  14
6HR MIN TEMP:   5; 6HR MAX TEMP:  23;

GROSSE ILE     LGT SNOW  21  18  86 CALM      30.31F
HILLSDALE      LGT SNOW  22  19  85 W3        30.28F VSB 3/4
6HR MIN TEMP:  15; 6HR MAX TEMP:  22;

HOWELL         CLOUDY    22  13  69 W5        30.29F WCI  16
6HR MIN TEMP:  10; 6HR MAX TEMP:  22;


CITY           SKY/WX    TMP DP  RH WIND       PRES   REMARKS
JACKSON        LGT SNOW  22  13  68 SW3       30.29F
6HR MIN TEMP:  14; 6HR MAX TEMP:  22; 6HR PCP: TRACE;

LAMBERTVILLE   LGT SNOW  23  18  80 W5        30.33F VSB 1   WCI  17
LANSING        PTSUNNY   21  13  71 W5        30.31F WCI  15
6HR MIN TEMP:   5; 6HR MAX TEMP:  21;

LAPEER         FAIR      24  12  62 W3        30.29S
MASON          CLOUDY    22  13  69 CALM      30.29F
6HR MIN TEMP:   5; 6HR MAX TEMP:  22;

MONROE         LGT SNOW  21  18  86 W3        30.31F VSB 1
MT. CLEMENS    CLOUDY    21  17  83 SE3       30.28F FOG
6HR MIN TEMP:  13; 6HR MAX TEMP:  21; 6HR PCP: TRACE;

PONTIAC        CLOUDY    22  13  68 W3        30.27F
6HR MIN TEMP:  13; 6HR MAX TEMP:  22; 6HR PCP: TRACE;

PORT HOPE        N/A     21  11  65 SW6       30.27F WCI  13
6HR MIN TEMP:  11; 6HR MAX TEMP:  21;

PORT HURON     PTSUNNY   23  16  74 SW6       30.30F WCI  16
TRI CITIES     PTSUNNY   22  13  68 SW8       30.30F WCI  12
6HR MIN TEMP:  10; 6HR MAX TEMP:  22;

TROY           CLOUDY    27  16  64 W3        30.31F
SAGINAW HB     CLOUDY    25  16  68 S7        30.29F WCI  17
$$
MIZ043>046-050>051-056>058-064>065-071>073-077>080-011900-
SOUTHWEST LOWER MICHIGAN

CITY           SKY/WX    TMP DP  RH WIND       PRES   REMARKS
BATTLE CREEK   PTSUNNY   22  14  71 SW7       30.32S WCI  13
6HR MIN TEMP:   6; 6HR MAX TEMP:  22;

BENTON HARBOR  CLOUDY    21  17  84 S6        30.34F FOG     WCI  13
6HR MIN TEMP:  13; 6HR MAX TEMP:  22; 6HR PCP: TRACE;

BIG RAPIDS     FLURRIES  22  16  78 SW6       30.26S WCI  15
6HR MIN TEMP:  10; 6HR MAX TEMP:  23;

COLDWATER      LGT SNOW  22  17  79 CALM      30.31F
6HR MIN TEMP:  15; 6HR MAX TEMP:  22;

FREMONT        LGT SNOW  23  17  77 SW7       30.29F WCI  14
HOLLAND        LGT SNOW  24  18  77 SW7       30.33F WCI  16
6HR MIN TEMP:  13; 6HR MAX TEMP:  24; 6HR PCP: TRACE;

GRAND RAPIDS   PTSUNNY   22  15  75 S9        30.31F WCI  12
6HR MIN TEMP:   8; 6HR MAX TEMP:  23; 6HR PCP: TRACE;

IONIA          MOCLDY    22  15  76 SW6       30.30F WCI  14
KALAMAZOO      PTSUNNY   22  15  75 S6        30.32F WCI  14
6HR MIN TEMP:   9; 6HR MAX TEMP:  22;

LUDINGTON      MOSUNNY   24  14  66 W9        30.29F WCI  14
6HR MIN TEMP:  21; 6HR MAX TEMP:  26;

MARSHALL       LGT SNOW  22  14  70 W3        30.31S
MOUNT PLEASANT CLOUDY    24  15  68 SW6       30.28F WCI  16
6HR MIN TEMP:   7; 6HR MAX TEMP:  24;

MUSKEGON       LGT SNOW  22  17  81 SW10      30.32S VSB 1   WCI  11
6HR MIN TEMP:  16; 6HR MAX TEMP:  22; 6HR PCP:  0.03;

SOUTH HAVEN    CLOUDY    25  17  72 W6        30.33F WCI  18
$$
MIZ016>042-011900-
NORTHERN LOWER MICHIGAN

CITY           SKY/WX    TMP DP  RH WIND       PRES   REMARKS
ALPENA         CLOUDY    26  10  50 W13G21    30.22F WCI  15
6HR MIN TEMP:  13; 6HR MAX TEMP:  26;

BEAVER ISLAND  PTSUNNY   22  15  72 SW10G18   30.20F WCI  11
6HR MIN TEMP:  15; 6HR MAX TEMP:  22;

BELLAIRE       PTSUNNY   24  13  64 SW7       30.25F WCI  16
6HR MIN TEMP:  16; 6HR MAX TEMP:  24;

CADILLAC       LGT SNOW  20  14  75 SW8       30.21F WCI  11
CHARLEVOIX     PTSUNNY   22  13  68 SW9       30.25F WCI  12
6HR MIN TEMP:  15; 6HR MAX TEMP:  23;

FRANKFORT      CLOUDY    23  16  74 SW7G17    30.26F WCI  14
GAYLORD        CLOUDY    19  11  70 W10       30.18F WCI   7
6HR MIN TEMP:  10; 6HR MAX TEMP:  19; 6HR PCP: TRACE;

GRAYLING       LGT SNOW  21  12  67 SW7       30.21F WCI  13
6HR MIN TEMP:   8; 6HR MAX TEMP:  22;

HARBOR SPRINGS CLOUDY    22  12  66 SW10      30.22F WCI  11
HOUGHTON LAKE  CLOUDY    21  11  65 W8        30.22F WCI  11
6HR MIN TEMP:  11; 6HR MAX TEMP:  21; 6HR PCP: TRACE;

MANISTEE       CLOUDY    23  12  63 SW9       30.28F WCI  13
OSCODA         PTSUNNY   24  12  60 SW8       30.25F WCI  15
PELLSTON       PTSUNNY   22  11  62 SW13G23   30.22F WCI  10
6HR MIN TEMP:  16; 6HR MAX TEMP:  22;

ROGERS CITY    CLOUDY    25  15  65 SW10G16   30.22F WCI  15
TRAVERSE CITY  CLOUDY    25  15  66 SW10      30.24F WCI  15
6HR MIN TEMP:  15; 6HR MAX TEMP:  25; 6HR PCP: TRACE;

$$
MIZ007>008-015-011900-
EASTERN UPPER MICHIGAN

CITY           SKY/WX    TMP DP  RH WIND       PRES   REMARKS
KINROSS        MOSUNNY   25  10  54 SW10G20   30.17F WCI  15
6HR MIN TEMP:  12; 6HR MAX TEMP:  25;

MACKINAC ISLAN FAIR      22  12  66 SW12G24   30.20F WCI  10
6HR MIN TEMP:  15; 6HR MAX TEMP:  22;

NEWBERRY       MOSUNNY   22  11  63 SW14G20   30.14F WCI   9
6HR MIN TEMP:  11; 6HR MAX TEMP:  22;

S. S. MARIE    SUNNY     24   8  50 SW15      30.15F WCI  11
6HR MIN TEMP:   8; 6HR MAX TEMP:  25;

MUNISING         N/A     26   9  48 SW13G20   30.14F WCI  15
6HR MIN TEMP:  14; 6HR MAX TEMP:  26;

$$
MIZ004>006-011>014-085-011900-
CENTRAL UPPER MICHIGAN

CITY           SKY/WX    TMP DP  RH WIND       PRES   REMARKS
MANISTIQUE     MOSUNNY   21  12  70 SW12      30.18F WCI   9
6HR MIN TEMP:  14; 6HR MAX TEMP:  21;

ESCANABA       PTSUNNY   21  12  68 S16       30.19F WCI   7
6HR MIN TEMP:  10; 6HR MAX TEMP:  21;

MENOMINEE      MOSUNNY   25  12  58 SW16      30.20F WCI  12
6HR MIN TEMP:  10; 6HR MAX TEMP:  25;

SAWYER-GWINN   CLOUDY    21   9  58 S10       30.09F WCI  10
$$
MIZ001>003-009>011-084-011900-
WESTERN UPPER MICHIGAN

CITY           SKY/WX    TMP DP  RH WIND       PRES   REMARKS
IRON MOUNTAIN  CLOUDY    25  13  60 SW14      30.11F WCI  13
6HR MIN TEMP:   1; 6HR MAX TEMP:  25;

HOUGHTON       LGT SNOW  20  11  68 W12G24    30.07F WCI   8
6HR MIN TEMP:   9; 6HR MAX TEMP:  19; 6HR PCP: TRACE;

COPPER HARBOR    N/A     24  10  55 VRB6      30.09S WCI  17
6HR MIN TEMP:  11; 6HR MAX TEMP:  25;

IRONWOOD       CLOUDY    19  10  68 W16       30.08F WCI   5
6HR MIN TEMP:  12; 6HR MAX TEMP:  19;

$$

ABBREVIATIONS USED IN REMARKS
   TC - TEMPERATURE IN CELSIUS
  WCI - WIND CHILL INDEX
   HX - HEAT INDEX
  VSB - VISIBILITY




USA.gov is the U.S. government's official web portal to all federal, state and local government web resources and services.